Location: Étouvelles
(49.5207°N, 3.5808°E)
Time: 00:05:40
(UTC+00:00)

COSMO-SKYMED 1 - Pass Details

Date: 03 February 2023
Orbit: 621 x 623 km, 97.9° (Epoch: 21 March)

Event Time Altitude Azimuth Distance (km) Brightness Sun altitude
Rises 18:41:36 0° 7° (N) 2,920 5.9 -19.2°
Reaches altitude 10° 18:43:54 10° 360° (N) 2,008 5.1 -19.6°
Maximum altitude 18:47:56 38° 292° (WNW) 952 4.0 -20.2°
Drops below altitude 10° 18:51:58 10° 224° (SW) 1,992 5.8 -20.9°
Sets 18:54:14 0° 217° (SW) 2,894 6.5 -21.2°
